www.pogodaiklimat.ru

Погода и климат >> Архив погоды >> Южная Африка >> Порт Ноллоз


ПОГОДА в Порт Ноллоз

  • Прогноз погоды в Порт Ноллоз
  • Монитор погоды в Порт Ноллоз

АРХИВ ПОГОДЫ в Порт Ноллоз

Время (UTC), дата Ветер
(напр.,м/с)
 
Видим.   Явления Облачность Т
(С)
Тd
(С)
f
(%)
Тe
(С)
Тes
(С)
Комфортность P
(гПа)
Po
(гПа)
Тmin
(С)
Tmax
(С)
R
(мм)
R24
(мм)
S
(см)
03 17.07 СВ 1 н/о н/о +4.7 +3.8 94 +3 +3 1022.1 1021.1 +4.5 +14.4
06 17.07 В 3 н/о н/о +7.0 +5.9 93 +4 +4 1023.4 1022.5 +4.2
09 17.07 ЮВ 2 н/о н/о +11.6 +9.0 84 +11 +11 1025.2 1024.3 +4.2 +11.8
12 17.07 ЮЗ 2 н/о н/о +14.2 +9.4 73 +14 +14 1022.9 1022.0 +4.2 +14.2
15 17.07 ЮЗ 1 н/о н/о +13.4 +9.6 78 +14 +14 1022.5 1021.6 +12.8 +14.5
18 17.07 В 2 н/о н/о +9.3 +7.5 89 +8 +8 1023.0 1022.1 +9.3 +14.5 0.2
21 17.07 В 2 н/о н/о +7.2 +5.6 90 +5 +5 1024.1 1023.2 +6.8 +14.5
00 18.07 В 3 н/о н/о +5.9 +4.2 89 +3 +3 1023.6 1022.6 +5.9 +14.5 0.2
03 18.07 штиль 0 н/о н/о +6.0 +4.1 88 +5 +5 1022.4 1021.4 +5.7 +14.5
06 18.07 В 3 н/о н/о +5.0 +3.1 88 +2 +2 1022.8 1021.8 +4.7 0.2
09 18.07 ЮЗ 1 н/о н/о +14.4 +9.2 71 +15 +15 1023.7 1022.8 +4.7 +14.4
12 18.07 ЮЗ 1 н/о н/о +15.1 +10.5 74 +16 +16 1021.8 1020.9 +4.7 +15.1
15 18.07 Ю 3 н/о н/о +16.1 +12.5 79 +16 +16 1021.9 1021.0 +14.8 +17.2
18 18.07 В 2 н/о н/о +13.1 +11.8 92 +13 +13 1022.7 1021.8 +13.0 +17.2
21 18.07 СЗ 1 н/о н/о +12.7 +11.2 91 +13 +13 1023.5 1022.6 +12.7 +17.2
00 19.07 штиль 0 н/о н/о +12.2 +11.2 94 +12 +12 1023.2 1022.3 +12.2 +17.2
03 19.07 З 1 н/о н/о +12.4 +11.4 94 +12 +12 1023.5 1022.6 +11.9 +17.2
06 19.07 С 1 н/о н/о +12.7 +11.9 95 +13 +13 1023.5 1022.6 +11.9 0.2
09 19.07 Ю 1 н/о н/о +16.1 +13.6 85 +17 +17 1025.4 1024.5 +11.8 +17.0
12 19.07 Ю 2 н/о н/о +17.3 +13.2 77 +18 +18 1024.0 1023.1 +11.8 +18.0
15 19.07 ЮВ 3 н/о н/о +14.5 +12.7 89 +14 +14 1024.3 1023.4 +14.4 +18.0
18 19.07 ЮВ 3 н/о н/о +12.3 +11.5 95 +11 +11 1025.2 1024.3 +12.3 +18.0
21 19.07 В 2 н/о н/о +10.7 +9.9 95 +9 +9 1026.3 1025.4 +10.6 +18.0
00 20.07 ЮВ 3 н/о н/о +10.1 +8.8 92 +8 +8 1026.1 1025.2 +9.2 +18.0
03 20.07 ЮВ 4 н/о н/о +9.5 +7.7 89 +7 +7 1025.2 1024.3 +8.8 +18.0
06 20.07 ЮВ 3 н/о н/о +8.2 +6.0 86 +5 +5 1025.7 1024.8 +7.8
09 20.07 ЮВ 4 н/о н/о +15.0 +8.0 63 +14 +14 1026.4 1025.5 +7.7 +15.2
12 20.07 ЮВ 7 н/о н/о +15.3 +7.4 59 +14 +14 1023.5 1022.6 +7.7 +16.0
15 20.07 ЮВ 8 н/о н/о +13.7 +7.7 67 +11 +11 1021.5 1020.6 +13.7 +16.0
18 20.07 ЮВ 5 н/о н/о +11.0 +8.2 83 +8 +8 1021.3 1020.4 +11.0 +16.0
21 20.07 ЮВ 2 н/о н/о +9.1 +6.0 81 +7 +7 1020.6 1019.7 +9.0 +16.0
00 21.07 В 1 н/о н/о +16.3 +3.1 41 +17 +17 1018.5 1017.6 +9.0 +16.9
03 21.07 СВ 4 н/о н/о +18.2 +1.8 33 +18 +18 1016.3 1015.4 +9.0 +18.2
06 21.07 СВ 6 н/о н/о +18.8 +1.0 30 +19 +19 1015.9 1015.0 +9.0
09 21.07 СВ 5 н/о н/о +26.1 +0.2 18 +24 +24 комфорт 1016.8 1015.9 +9.0 +26.1
12 21.07 Ю 2 н/о н/о +19.4 +7.6 46 +21 +21 комфорт 1014.7 1013.8 +9.0 +31.1
15 21.07 СЗ 2 н/о н/о +18.6 +8.1 50 +20 +20 1014.7 1013.8 +18.5 +31.1
18 21.07 СЗ 4 н/о н/о +13.2 +7.4 68 +12 +12 1016.4 1015.5 +13.2 +31.1
21 21.07 СЗ 4 н/о н/о +12.4 +6.2 66 +11 +11 1017.4 1016.5 +12.4 +31.1
00 22.07 С 2 н/о н/о +10.0 +3.3 63 +9 +9 1016.8 1015.9 +9.7 +31.1
03 22.07 СЗ 3 н/о н/о +10.4 +9.1 92 +8 +8 1016.6 1015.7 +7.7 +31.1
06 22.07 СЗ 3 н/о н/о +9.6 +8.9 95 +7 +7 1016.8 1015.9 +7.7
09 22.07 СЗ 3 н/о н/о +11.1 +10.4 95 +9 +9 1019.1 1018.2 +7.7 +11.1
12 22.07 СЗ 4 н/о н/о +14.7 +9.7 72 +14 +14 1017.3 1016.4 +7.7 +15.5
15 22.07 З 5 н/о н/о +13.2 +10.0 81 +11 +11 1016.3 1015.4 +12.4 +15.5
18 22.07 С 3 н/о н/о +11.4 +9.1 86 +10 +10 1015.9 1015.0 +11.4 +15.5
21 22.07 С 3 н/о н/о +10.8 +8.7 87 +9 +9 1015.7 1014.8 +10.5 +15.5
00 23.07 СЗ 4 н/о н/о +12.3 +9.5 83 +10 +10 1014.8 1013.9 +10.5 +15.5
03 23.07 СЗ 4 н/о н/о +12.6 +11.3 92 +11 +11 1013.6 1012.7 +10.5 +15.5
06 23.07 СЗ 6 н/о н/о +13.3 +10.6 84 +11 +11 1013.3 1012.4 +10.5
09 23.07 СЗ 8 н/о н/о +12.5 +11.5 94 +9 +9 1015.0 1014.1 +10.5 +14.2
12 23.07 СЗ 11 н/о н/о +14.3 +11.6 84 +11 +11 1014.0 1013.1 +10.5 +14.8 1
15 23.07 СЗ 9 н/о н/о +12.8 +11.3 91 +9 +9 1016.3 1015.4 +12.0 +14.8
18 23.07 СЗ 5 н/о н/о +12.0 +10.4 90 +10 +10 1019.0 1018.1 +12.0 +14.8 6
21 23.07 СЗ 3 н/о н/о +11.5 +10.5 94 +10 +10 1020.4 1019.5 +11.3 +14.8

 

Местоположение метеостанции Порт Ноллоз (Южная Африка): широта -29.23 долгота 16.87 высота над уровнем моря 10 м.

В архиве по умолчанию представлена погода в Порт Ноллоз за последнюю неделю. Архивные данные за месяц целиком и за предыдущие месяцы, начиная с января 2011 года, Вы можете получить, выбрав интересующий диапазон дат из раскрывающегося списка и нажав кнопку "Ввод!".


*Определитесь, кто Вы:
робот инопланетянин человек

Внимание! Время в таблицах - всемирное. Для получения местного времени необходимо прибавить поправку, которая равна 2 ч.

Смотрите также архив погоды в соседних городах и на ближайших метеорологических станциях:

Погода в Александер-Бее (Южная Африка) (82 км)
Погода в Виулсдрифе (Южная Африка) (92 км)
Погода в Спрингбоке (Южная Африка) (111 км)
Погода в Коингнаасе (Южная Африка) (115 км)
Погода в Портервилле (Южная Африка) (222 км)
Погода в Пофаддере (Южная Африка) (244 км)
Погода в Фридендале (Южная Африка) (312 км)
Погода в Ниеувоудтвилле (Южная Африка) (317 км)
Погода в Китмансхупе (Намибия) (324 км)
Погода в Людерице (Намибия) (337 км)

Пояснения к столбцам:

Ветер - указаны скорость ветра в м/с - средняя за 10 мин, порывы в срок и между сроками (в фигурных скобках) и направление, откуда дует ветер: С - северный, СВ - северо-восточный, В - восточный, ЮВ - юго-восточный, Ю - южный, ЮЗ - юго-западный, З - западный, СЗ - северо-западный.
Видимость - горизонтальная дальность видимости в метрах или километрах. При видимости от 1 до 10 км при отсутствии осадков обычно наблюдается дымка, при ухудшении видимости до 1 км и менее - туман. В сухую погоду видимость может ухудшаться дымом, пылью или мглою.
Явления - указаны атмосферные явления, наблюдавшиеся в срок или в последний час перед сроком; фигурными скобками обозначены явления, наблюдавшиеся между сроками (за 1-3 часа до срока); квадратными скобками обозначены град или гололедные отложения с указанием их диаметра в мм.
Облачность - указаны через наклонную черту общая и нижняя облачность в баллах и высота нижней границы облаков в метрах; квадратными скобками обозначены формы облаков: Ci - перистые, Cs - перисто-слоистые, Cc - перисто-кучевые, Ac - высококучевые, As - высокослоистые, Sc - слоисто-кучевые, Ns - слоисто-дождевые, Cu - кучевые, Cb - кучево-дождевые. Подробнее классификацию облаков см. в Атласе облаков (PDF).
T - Температура воздуха - температура, измеренная на высоте 2 м над землей.
Td - Температура точки росы - температура, при понижении до которой содержащийся в воздухе водяной пар достигнет насыщения.
f - Относительная влажность воздуха - влажноcть воздуха, измеренная на высоте 2 м над землей.
Te - Эффективная температура - температура, которую ощущает одетый по сезону человек в тени. Характеристика душности погоды. При расчете учитывается влияние влажности воздуха и скорости ветра на теплоощущения человека.
Tes - Эффективная температура на солнце - температура, которую ощущает человек, с поправкой на солнечный нагрев. Характеристика знойности погоды. Зависит от высоты солнца над горизонтом, облачности и скорости ветра. Ночью, в пасмурную погоду, а также при ветре 12 м/с и более поправка равна нулю.
P - Атмосферное давление - приведенное к уровню моря атмосферное давление.
Po - Атмосферное давление - измеренное на уровне метеостанции атмосферное давление.
Tmin - Минимальная температура - минимум температуры воздуха на высоте 2 м над землей.
Tmax - Максимальная температура - максимум температуры воздуха на высоте 2 м над землей.
R - Количество осадков - Количество выпавших осадков за период времени, мм. При наведении курсора мыши на число - период времени, за который выпало указанное количество осадков.
R24 - Количество осадков - Количество выпавших осадков за 24 часа, мм.
S - Снежный покров - Высота снежного покрова, см. При наведении курсора мыши на число - состояние снежного покрова и степень покрытия местности в баллах.